Вернуться в каталог

CZ-4B DEB

АктивенSSO
NORAD 27433·DEBRIS·🇨🇳 China

Запущен May 15, 2002 с Taiyuan Satellite Launch Center

Loading…

Ближайшие Пролёты (ближайшие 24 часа)

TLE

СвежийSource: Space-Track

Эпоха: Sep 14, 2026, 14:51 UTC

1 27433U 02024D   26257.61909244  .00000225  00000-0  13996-3 0  9994
2 27433  98.9126 306.2887 0013303 245.0089 114.9702 14.14751525253973

Отслеживайте CZ-4B DEB в реальном времени с AllMySat

Download on the App Store